Main page
METAR-TAF:

METAR-TAF

Airports :

Boca Raton Airport

Boca Raton, Florida, United States

latitude: 26-22-43N, longitude: 080-06-28W, elevation: 13 ft

Current weather observation

The report was made 5 hours and 1 minutes ago, at 02:53 UTC
Wind 17 mph from the East
Temperature 77°F
Humidity 65%
Pressure 30.11 in. Hg
Visibility: 10 miles
Scattered clouds at a height of 3300 ft
Scattered clouds at a height of 4400 ft

METAR: KBCT 180253Z 09015KT 10SM SCT033 SCT044 25/18 A3011

Time: 03:54 (07:54 UTC)


TAF: missing

Weather observations and forecasts of more than 4000 airports (METAR and TAF reports).

The available stations are represented by yellow and red dots on the map.

Hover mouse over dot to see the name of the station.

Then click to see weather observations and forecasts.

To change the map : click on the green buttons with a black cross to zoom in, on the green button with a dash to zoom out, or on the green arrows for adjacent maps.


METAR-TAF: